Weather History for Elmira, NY

Change the Weather History Date:

Monday, November 12, 2012

  Actual Average Record
Temperature  
Mean Temperature 55 °F -  
Max Temperature 64 °F 46 °F 70 °F (1931)
Min Temperature 44 °F 33 °F 15 °F (1976)
Degree Days  
Heating Degree Days 10    
Growing Degree Days 5 (Base 50)    
Moisture  
Dew Point 46 °F    
Average Humidity 63    
Maximum Humidity 83    
Minimum Humidity 47    
Precipitation  
Precipitation 0.18 in - - ()
Sea Level Pressure  
Sea Level Pressure 30.16 in    
Wind  
Wind Speed 10 mph (SW)    
Max Wind Speed 23 mph    
Max Gust Speed 38 mph    
Visibility 9 miles    
Events Rain    
Averages and records for this station are not official NWS values.
T = Trace of Precipitation, MM = Missing Value Source: NWS Daily Summary

Daily Weather History Graph

Daily Weather History Graph

Search for Another Location

Airport:

Trip Planner

Search our weather history database for the weather conditions in past years. The results will help you decide how hot, cold, wet, or windy it might be!

Date:

Astronomy

Nov. 12, 2012 Rise Set
Actual Time 6:54 AM EST 4:48 PM EST
Civil Twilight 6:24 AM EST 5:18 PM EST
Nautical Twilight 5:51 AM EST 5:51 PM EST
Astronomical Twilight 5:18 AM EST 6:24 PM EST
Moon 5:16 AM EST (11/12) 3:52 PM EST (11/12)
Length of Visible Light 10h 53m
Length of Day
9h 53m
Waning Crescent, 2% of the Moon is Illuminated
Nov 12
Waning Crescent
Nov 13
New
Nov 20
First Quarter
Nov 28
Full
Dec 6
Last Quarter

Hourly Weather History & Observations

Time (EST) Temp. Windchill Dew Point Humidity Pressure Visibility Wind Dir Wind Speed Gust Speed Precip Events Conditions
1:53 AM 57.9 °F - 37.9 °F 47% 30.27 in 10.0 mi Calm Calm - N/A   Clear
2:53 AM 52.0 °F - 37.9 °F 59% 30.27 in 10.0 mi Calm Calm - N/A   Clear
3:53 AM 57.9 °F - 41.0 °F 53% 30.25 in 10.0 mi SW 8.1 mph 19.6 mph N/A   Clear
4:53 AM 59.0 °F - 43.0 °F 55% 30.26 in 10.0 mi SW 13.8 mph 25.3 mph N/A   Clear
5:53 AM 57.9 °F - 43.0 °F 58% 30.25 in 10.0 mi WSW 10.4 mph 28.8 mph N/A   Clear
6:53 AM 55.9 °F - 44.1 °F 64% 30.26 in 10.0 mi Calm Calm - N/A   Clear
7:53 AM 59.0 °F - 46.0 °F 62% 30.27 in 10.0 mi SW 10.4 mph 25.3 mph N/A   Clear
8:53 AM 61.0 °F - 46.9 °F 60% 30.26 in 10.0 mi SSW 15.0 mph 32.2 mph N/A   Clear
9:53 AM 62.1 °F - 48.0 °F 60% 30.25 in 10.0 mi SW 19.6 mph 27.6 mph N/A   Clear
10:53 AM 63.0 °F - 48.9 °F 60% 30.24 in 10.0 mi SSW 18.4 mph 25.3 mph N/A   Clear
11:53 AM 64.0 °F - 48.9 °F 58% 30.20 in 10.0 mi SSW 18.4 mph 29.9 mph N/A   Clear
12:53 PM 63.0 °F - 48.9 °F 60% 30.15 in 10.0 mi South 17.3 mph 27.6 mph N/A   Clear
1:53 PM 64.0 °F - 48.9 °F 58% 30.13 in 10.0 mi SSW 19.6 mph 31.1 mph N/A   Clear
2:53 PM 64.0 °F - 48.9 °F 58% 30.09 in 10.0 mi SSW 12.7 mph 21.9 mph N/A   Clear
3:53 PM 64.0 °F - 48.9 °F 58% 30.06 in 10.0 mi South 12.7 mph 25.3 mph N/A   Partly Cloudy
4:53 PM 64.0 °F - 48.9 °F 58% 30.06 in 10.0 mi South 12.7 mph 31.1 mph N/A   Overcast
5:53 PM 63.0 °F - 48.9 °F 60% 30.04 in 10.0 mi South 20.7 mph 29.9 mph N/A   Mostly Cloudy
6:53 PM 62.1 °F - 50.0 °F 65% 30.03 in 10.0 mi South 17.3 mph 24.2 mph N/A   Partly Cloudy
7:53 PM 63.0 °F - 51.1 °F 65% 30.01 in 10.0 mi South 18.4 mph 26.5 mph N/A   Overcast
8:53 PM 64.0 °F - 51.1 °F 63% 29.99 in 10.0 mi South 12.7 mph 31.1 mph N/A   Overcast
9:48 PM 48.2 °F - 42.8 °F 82% 30.08 in 2.5 mi WNW 23.0 mph 38.0 mph 0.11 in Rain Heavy Rain
9:53 PM 48.0 °F - 43.0 °F 83% 30.09 in 1.8 mi WNW 13.8 mph 38.0 mph 0.17 in Rain Heavy Rain
9:56 PM 48.2 °F - 42.8 °F 82% 30.10 in 3.0 mi WNW 18.4 mph 34.5 mph 0.00 in Rain Heavy Rain
10:53 PM 46.9 °F - 42.1 °F 83% 30.16 in 10.0 mi SW 6.9 mph - N/A Rain Light Rain
11:53 PM 44.1 °F 39.5 °F 37.0 °F 76% 30.19 in 10.0 mi West 8.1 mph 18.4 mph 0.01 in Rain Light Rain